CZ-6A DEB, 54916

Orbit data source: Space-Track

CZ-6A DEB, 54916 is space debris in SSO originally from a launch on Fri, 11 Nov 2022 UTC launched from the Taiyaun Space Center, China (TSC). Debris objects in space refer to the collection of defunct objects orbiting the Earth. Examples of debris include non-operational satellites, rocket bodies, and fragments generated from explosions, collisions, or faulty payload assembly.

Loading next visibility...
Identifier
54916, 2022-151RD
Orbit
SSO
Country
Flag of CNCN / PRC
Related business
Manufacturer
SAST
Mission
Spacecraft
Bus & Motor
Unknown
Mass
Unknown
Launch date (UTC)
2022-11-11 (4 years ago)
Launch vehicle
Unknown
Launch site
Taiyaun Space Center, China (TSC)
Object type
Payload
Rocket body
Debris
Shape & HBR
Unknown shape, 0.1 m
Radar Cross Section
Medium (>0.1 m² and <1 m²)

Expand to show TLE details & history
Last TLE update: 2 days ago

TLE from 2 days ago
0 CZ-6A DEB
1 54916U 22151RD  26171.41377771  .00000309  00000-0  19755-3 0  9992
2 54916  98.8512 171.7704 0049634 338.3226  21.5844 14.10084982181977
Epoch: 2026-06-20T09:55Z
TLE epoch observation values (Epoch: 2026-06-20T09:55:50.394Z)
Latitude
0.00007°
Longitude
114.18166°
Altitude
828.593 km
Speed
7.456 km/s
True Right ascension
11h 27m 04s
True Declination
0° 00' 00"
Sunlit
Object was in daylight at epoch
Visualization orbit readout
Latitude
Unknown
Longitude
Unknown
Altitude
Unknown
Speed
Unknown
Apparent Right ascension
Unknown
Apparent Declination
Unknown
Sunlit
N/A
Visualization observer readout
Local Sidereal Time
21:39:37
Azimuth
Unknown
Elevation
Unknown
Doppler factor
Unknown
Orbital elements
Apogee altitude
892.167 km
Perigee altitude
820.352 km
Semi-major axis
7,234.396 km
Eccentricity
0.00496
Inclination
98.8512°
RAAN
171.7704°
Arg. of periapsis
338.3226°
True anomaly
21.79485°
Mean anomaly
21.5844°
Eccentric anomaly
21.6895°
Mean motion
3.52728 °/min
Orbital period
102.06 mins
BSTAR
0.00019755
Loading maneuver chart data...
Computing Atmospheric mass density...
Loading historical data...
Loading historical data...
Loading historical data...
Loading historical data...
Loading historical data...
Loading historical data...
Loading historical data...

Documentation

Showing up to 5 results
|